This is the latest recevied weather packets stored in our database for station/object KD4EED. If no packets are shown the sender has not sent any weather packets the latest 10 day(s).
| Time | Temp. | Humidity | Pressure | Rain* | Wind** | Luminosity | Snow |
|---|---|---|---|---|---|---|---|
| 1777229739 | 18.89° C | 56% | 1011.6 hPa | - | - | 787 W/m² | - |
| 1777229436 | 18.89° C | 56% | 1011.7 hPa | - | - | 770 W/m² | - |
| 1777229133 | 18.89° C | 54% | 1011.7 hPa | - | - | 591 W/m² | - |
| 1777228830 | 18.89° C | 54% | 1011.6 hPa | - | - | 762 W/m² | - |
| 1777228525 | 18.33° C | 58% | 1011.7 hPa | - | - | 798 W/m² | - |
| 1777228222 | 18.33° C | 54% | 1011.7 hPa | - | - | 727 W/m² | - |
| 1777227921 | 18.89° C | 52% | 1011.7 hPa | - | - | 711 W/m² | - |
| 1777227617 | 18.89° C | 53% | 1011.7 hPa | - | - | 702 W/m² | - |
| 1777227312 | 18.33° C | 54% | 1011.8 hPa | - | - | 694 W/m² | - |
| 1777227010 | 18.33° C | 52% | 1011.7 hPa | - | - | 694 W/m² | - |
| 1777226709 | 18.89° C | 51% | 1011.8 hPa | - | - | 680 W/m² | - |
| 1777226404 | 18.89° C | 52% | 1011.7 hPa | - | - | 693 W/m² | - |
| 1777226100 | 18.89° C | 56% | 1011.7 hPa | - | - | 693 W/m² | - |
| 1777225796 | 18.89° C | 57% | 1011.6 hPa | - | - | 669 W/m² | - |
| 1777225493 | 18.33° C | 57% | 1011.4 hPa | - | - | 627 W/m² | - |
| 1777225191 | 18.89° C | 56% | 1011.5 hPa | - | - | 641 W/m² | - |
| 1777224886 | 18.89° C | 57% | 1011.5 hPa | - | - | 636 W/m² | - |
| 1777224583 | 18.89° C | 57% | 1011.6 hPa | - | - | 632 W/m² | - |
| 1777224278 | 18.33° C | 58% | 1011.5 hPa | - | - | 625 W/m² | - |
| 1777223975 | 18.33° C | 58% | 1011.3 hPa | - | - | 610 W/m² | - |
| 1777223672 | 18.33° C | 58% | 1011.3 hPa | - | - | 592 W/m² | - |
| 1777223368 | 17.78° C | 57% | 1011.3 hPa | - | - | 589 W/m² | - |
| 1777223067 | 17.22° C | 56% | 1011.3 hPa | - | - | 578 W/m² | - |
| 1777222763 | 17.22° C | 58% | 1011.1 hPa | - | - | 563 W/m² | - |
| 1777222461 | 17.22° C | 58% | 1011.1 hPa | - | - | 551 W/m² | - |
* Rain since midnight (hover to see other rain measurements)
** Current wind speed in m/s (hover to see current wind gust speed)